GFSGBSN_850_rhum_189.txt.gz
RH
86 86 86 83 82 82 83 62 42 32 30 18 27 31 35 34 33 31 28 22 16 14 13 15 18 19 23 31 40 27 29 31 25 22 19 21 30 46 47 66 56 52 51 52 48 50 52
94 93 95 96 94 91 84 89 86 74 52 26 15 26 32 34 34 32 30 24 19 17 16 16 18 20 29 46 42 28 29 33 27 25 29 29 41 59 63 62 59 62 63 63 53 52 51
92 85 96 94 91 96 97 91 86 87 86 71 30 26 22 25 34 32 28 25 22 20 18 18 19 22 28 45 36 30 31 31 32 36 44 44 48 51 60 59 64 65 70 62 54 51 45
78 81 84 84 80 79 74 86 93 86 85 85 78 50 36 18 21 30 28 24 22 20 23 23 28 32 42 50 37 32 33 32 36 42 53 51 57 62 65 66 63 71 57 52 36 44 41
78 73 70 66 65 65 76 76 67 89 86 84 84 81 71 49 23 18 24 21 19 25 29 32 41 36 53 46 36 40 38 34 36 46 59 58 59 67 62 68 63 63 65 59 59 47 50
74 65 45 36 40 36 35 55 76 73 85 85 83 85 78 78 62 17 21 21 28 39 40 42 46 44 53 49 49 44 37 41 44 56 61 63 63 77 79 68 61 56 70 68 73 53 56
27 16 12 10 11 12 12 18 49 66 59 76 83 78 80 76 72 32 19 22 25 35 27 31 50 56 53 53 48 49 49 47 55 61 65 76 70 62 57 58 52 59 71 78 70 56 66
11 10 13 15 21 24 24 43 43 82 92 74 88 81 77 77 72 59 34 29 50 60 68 42 45 54 62 58 55 48 57 56 58 55 63 64 56 50 60 56 61 66 74 78 66 60 58
17 18 25 28 52 65 60 44 89 84 89 90 89 100 85 78 74 68 54 44 54 69 88 47 64 60 58 56 54 53 63 65 62 64 64 64 42 57 58 59 64 69 72 71 64 71 66
85 87 67 63 56 50 82 82 79 80 75 94 83 97 90 84 76 73 61 47 52 76 76 46 56 66 65 61 67 72 68 62 65 61 68 71 61 56 58 66 71 85 64 69 77 85 90
78 84 93 80 67 87 63 88 76 84 71 73 95 88 94 86 87 78 78 49 56 78 37 34 65 71 70 68 72 74 69 65 55 68 60 29 60 63 70 63 64 56 61 75 77 95 97
83 71 64 64 82 50 71 78 83 74 64 63 94 92 94 88 79 80 78 55 72 64 32 55 68 68 72 70 73 78 73 65 75 75 79 75 65 63 60 58 61 63 63 61 86 93 92
72 63 59 53 70 83 69 73 85 78 68 85 78 77 93 98 90 79 81 54 74 60 31 47 65 80 68 77 71 83 84 85 60 47 54 60 63 65 58 66 55 56 67 82 74 79 70
65 59 64 61 70 75 77 82 91 80 77 91 90 89 86 96 99 88 92 52 52 41 48 43 59 67 65 68 66 79 73 72 79 60 86 76 43 63 62 58 50 59 61 83 69 82 73
66 71 78 72 63 68 79 80 74 77 79 93 91 91 87 77 100 98 82 88 72 50 40 44 48 62 55 55 49 68 75 65 58 75 49 78 65 47 64 56 50 62 82 58 82 75 93
69 76 78 74 77 73 78 78 79 83 92 93 91 92 87 93 98 100 91 80 62 56 53 53 55 48 43 53 52 64 55 49 51 69 47 50 65 48 48 53 54 55 58 76 90 99 95
41 61 76 78 78 76 74 73 79 88 89 94 94 89 96 84 98 98 93 87 66 55 53 57 51 47 47 49 49 58 46 35 44 55 50 53 61 56 52 56 58 70 73 82 83 87 99
40 39 67 73 87 85 80 77 83 86 88 93 97 96 91 98 99 88 100 83 64 64 58 57 46 48 48 48 52 48 48 33 39 47 57 53 73 87 64 47 50 52 63 77 89 85 95
42 34 55 83 85 83 83 84 78 87 96 99 100 95 97 100 98 98 95 81 72 68 62 61 66 54 48 52 58 45 43 39 47 48 51 52 64 83 67 45 43 54 57 60 66 79 74
49 43 37 59 74 77 71 68 78 88 88 99 100 99 97 100 95 93 90 95 98 76 77 88 70 64 65 67 58 60 59 51 54 50 50 54 68 67 81 59 46 56 53 55 66 90 73
52 53 55 47 44 48 58 59 55 67 87 84 98 100 96 99 99 99 94 99 95 93 97 95 80 92 97 94 86 82 71 80 64 66 66 70 87 81 74 71 74 77 78 73 80 73 84
56 54 56 64 66 62 48 40 43 49 68 94 92 99 99 100 99 98 97 100 88 80 80 89 94 73 96 100 99 100 99 82 90 82 85 92 99 99 94 83 83 81 73 73 73 70 68
58 54 48 50 56 51 38 39 46 38 54 92 93 100 100 85 97 98 95 93 95 98 82 77 76 88 95 96 96 76 66 80 92 92 86 89 97 96 87 76 81 79 69 62 54 54 53
65 56 44 40 42 36 31 32 36 47 55 83 93 88 95 98 98 87 91 96 93 96 98 90 73 86 69 69 54 51 61 83 94 96 84 82 86 90 88 79 78 48 47 51 55 48 48
79 72 50 45 46 47 43 41 48 72 70 68 87 89 85 96 96 86 78 90 70 67 66 60 58 54 50 46 70 77 69 70 73 80 80 75 73 91 97 88 54 54 44 40 43 48 36
90 85 81 84 78 74 76 72 69 63 61 66 74 95 95 97 90 86 79 79 83 82 73 53 46 48 50 74 83 94 60 70 60 59 68 76 75 76 97 95 93 52 37 34 36 48 35
61 68 86 87 78 77 79 79 83 80 85 84 67 81 83 92 68 71 78 83 70 76 85 78 74 61 69 88 99 95 81 67 83 63 57 90 98 93 88 91 76 59 48 37 60 50 36
67 64 63 65 67 71 75 74 76 71 75 86 99 79 90 88 70 63 66 74 72 85 94 70 68 64 78 99 98 90 96 82 77 64 64 62 85 92 88 97 84 44 46 56 46 35 35
69 70 71 72 70 68 67 66 63 64 66 83 80 81 90 98 68 65 68 63 71 74 74 73 60 65 68 96 95 91 96 92 82 77 59 67 49 65 80 68 50 47 45 40 41 42 43

GFSGBSN_850_rhum_195.txt.gz
RH
96 97 99 98 93 89 94 93 84 77 73 67 64 54 38 40 28 17 18 22 21 21 19 15 17 19 18 24 32 27 22 21 18 19 17 17 18 30 44 55 50 47 55 54 53 54 55
91 93 99 95 91 84 80 80 72 69 64 67 64 62 58 51 47 47 26 12 17 16 15 17 14 21 22 26 41 32 25 24 21 22 23 22 29 32 49 59 52 67 67 64 56 50 50
77 82 96 89 80 77 76 75 73 72 68 57 70 69 68 71 61 51 51 20 14 14 13 13 17 17 33 30 42 33 28 25 24 30 28 35 40 38 45 62 67 68 44 33 50 44 44
84 85 84 81 77 70 59 48 48 47 55 70 65 88 76 66 72 62 53 41 20 18 23 17 20 21 34 53 50 36 31 26 28 35 38 40 45 47 57 62 43 47 43 32 32 45 49
64 71 65 56 59 48 34 18 17 17 23 30 52 64 74 71 71 72 62 52 35 24 35 34 26 27 36 50 51 38 34 28 31 39 46 44 47 55 51 43 53 51 42 47 46 49 49
48 44 36 25 16 10 9 11 9 10 10 41 37 49 58 68 73 68 58 51 37 20 46 46 41 36 39 46 46 45 38 33 37 45 50 48 50 59 64 55 42 31 43 53 59 46 56
24 16 10 10 9 11 35 73 43 25 24 42 58 58 54 61 72 70 56 47 31 29 30 29 40 46 48 48 48 45 44 44 46 48 46 67 50 48 48 49 46 56 62 65 64 57 63
8 9 12 21 24 18 22 26 71 68 58 51 53 30 70 95 84 69 66 50 46 57 72 34 42 47 46 53 50 48 45 48 48 41 63 48 41 46 63 63 64 66 68 66 57 58 66
9 12 33 28 40 67 65 75 56 81 76 65 58 28 72 90 82 69 71 70 50 57 88 48 58 65 63 57 58 55 58 59 54 57 56 37 46 65 58 64 65 66 62 56 58 69 65
14 22 28 30 35 39 44 57 82 64 89 63 54 42 71 83 77 82 78 78 62 61 79 54 59 70 68 62 65 76 71 59 66 53 69 55 63 64 63 62 64 67 61 62 76 75 68
26 39 46 42 38 40 49 64 52 86 85 69 56 43 86 94 86 88 87 84 64 50 38 39 62 74 69 63 72 78 73 62 53 74 49 30 71 69 67 56 59 47 66 78 81 94 96
29 34 43 42 51 50 51 63 70 80 80 74 76 74 89 95 84 91 82 85 63 67 46 51 70 74 72 71 81 80 75 66 74 69 76 56 69 64 51 61 62 63 65 62 76 87 76
36 44 50 56 64 59 54 57 72 84 82 72 74 82 78 98 91 92 87 78 80 71 32 48 64 77 66 72 77 84 81 83 67 47 39 53 62 70 62 63 59 54 51 65 60 73 53
40 54 72 66 68 68 67 65 66 68 71 74 75 91 91 82 86 98 93 67 81 52 36 40 61 75 70 76 75 85 81 73 76 51 75 53 44 70 66 56 53 69 49 70 48 68 62
39 57 73 69 64 64 65 63 66 68 77 83 89 89 86 87 88 96 93 93 81 63 44 58 55 68 54 61 59 78 80 65 55 67 41 57 44 54 65 59 50 67 75 57 76 73 94
39 42 59 66 65 68 67 70 69 75 81 89 89 83 84 86 83 92 94 82 70 48 59 58 65 56 50 57 59 74 59 49 55 70 52 48 46 50 56 57 59 56 61 75 85 85 96
46 40 49 64 67 70 74 72 71 81 78 83 90 87 82 96 96 99 100 90 72 58 59 60 56 56 53 54 51 61 48 40 49 66 61 55 53 51 53 63 64 72 75 85 77 81 97
47 42 68 70 76 76 69 72 74 68 83 87 87 96 91 100 92 88 100 92 73 67 60 57 54 50 55 50 54 54 50 39 52 58 64 58 69 75 54 51 50 55 68 75 84 84 88
48 42 39 46 60 69 71 62 58 70 76 84 87 97 96 99 100 100 97 96 89 82 75 69 68 62 61 60 64 56 45 56 55 51 58 58 74 83 61 56 53 59 67 69 71 77 86
50 44 43 43 39 36 39 56 60 53 72 76 95 97 98 98 99 99 100 99 99 90 87 88 91 72 72 77 63 72 65 65 63 70 61 60 72 64 64 52 49 57 59 68 64 89 62
49 48 48 54 53 43 32 35 40 50 56 82 98 95 98 89 100 97 99 100 95 99 96 98 98 88 86 98 91 86 90 82 74 79 80 68 80 79 75 72 75 71 67 64 64 61 74
54 50 50 50 41 33 21 18 20 34 51 85 90 90 98 98 96 95 88 97 98 100 85 90 99 98 96 95 92 97 98 94 94 78 84 88 95 91 87 81 85 86 81 79 74 72 77
55 53 49 45 36 27 23 21 18 23 42 80 99 90 89 92 92 91 95 96 99 98 99 100 99 93 92 80 95 96 99 84 72 80 81 83 94 93 94 80 76 78 62 62 62 71 72
63 60 53 45 35 38 42 38 31 22 31 66 83 84 91 93 90 94 95 98 97 98 98 90 91 98 98 92 56 47 64 76 77 80 78 78 97 92 96 81 94 46 45 50 57 58 66
81 75 65 53 51 60 61 65 58 49 32 31 50 83 91 98 94 82 85 91 78 71 68 64 63 68 57 53 52 61 50 62 69 82 83 83 85 92 92 97 72 49 38 53 55 49 49
89 87 82 75 70 80 75 69 73 74 71 59 48 46 73 86 83 91 88 85 85 82 73 60 55 50 56 68 75 71 60 49 46 60 86 89 71 73 97 99 93 56 44 39 41 52 43
82 88 92 88 59 79 75 69 78 78 83 75 68 64 54 58 53 65 75 84 78 79 80 76 69 46 72 85 91 92 80 56 59 54 98 90 95 90 86 83 79 52 42 41 68 52 42
63 65 66 73 79 70 60 62 67 70 68 68 68 68 75 69 60 65 65 63 72 79 87 62 71 69 81 100 92 86 95 78 81 63 78 91 97 91 93 96 87 43 54 61 52 44 41
44 51 63 64 66 65 59 57 59 66 78 77 70 70 84 98 73 59 56 72 68 65 72 74 63 64 54 99 94 93 90 92 94 93 58 58 50 68 79 70 47 53 46 34 33 34 36

GFSGBSN_850_rhum_198.txt.gz
RH
94 95 94 88 80 83 78 78 78 75 70 62 55 70 69 65 57 38 23 19 11 15 17 18 18 16 15 17 28 27 23 21 18 20 16 16 21 29 26 32 38 28 38 46 49 53 51
87 82 76 76 76 69 65 63 68 66 69 77 76 66 72 68 66 63 47 35 22 9 11 14 17 20 21 22 27 28 23 24 21 22 21 20 24 26 42 44 36 52 52 48 52 44 43
79 74 74 74 75 73 66 65 50 35 33 44 46 43 47 68 68 62 64 54 39 27 11 14 20 24 28 34 34 30 23 23 24 28 27 32 31 39 46 47 65 58 35 33 42 35 33
75 67 63 59 55 42 39 32 22 16 18 16 32 38 36 44 61 62 58 58 49 42 24 15 21 33 43 43 46 36 26 23 25 31 32 35 39 40 58 56 35 29 27 20 29 36 38
61 55 45 33 27 19 11 9 8 8 9 9 11 17 18 44 42 56 53 54 46 42 24 21 30 31 43 51 58 41 35 24 27 35 39 38 41 55 45 30 41 25 27 22 24 40 36
37 34 26 14 8 7 6 7 6 7 12 14 16 29 16 23 34 58 59 49 42 31 28 28 41 40 38 54 50 48 40 29 29 41 45 46 49 36 35 35 49 25 21 30 28 32 40
16 11 8 7 6 7 6 5 5 8 14 27 19 20 11 54 44 75 60 44 37 38 33 27 26 42 46 50 51 49 46 44 39 46 31 56 38 41 26 33 30 34 32 32 32 42 45
9 8 7 5 5 8 8 10 12 22 24 40 38 19 11 50 90 71 70 62 55 60 68 42 45 42 42 52 52 48 46 52 44 30 50 36 35 35 46 46 42 40 39 34 32 43 47
8 8 6 6 7 10 11 10 13 17 32 50 46 34 20 52 88 77 76 78 72 63 77 55 58 65 62 58 59 58 52 58 43 42 41 29 36 51 47 53 44 42 34 34 39 48 50
10 7 10 11 11 12 10 12 11 15 35 62 50 36 26 64 63 88 82 82 77 69 76 92 58 73 68 63 58 73 68 62 57 39 44 36 55 56 53 48 44 50 42 48 58 56 42
7 11 20 19 18 14 16 15 17 26 54 68 61 60 46 97 83 92 89 83 76 52 51 62 62 74 68 63 75 77 73 62 46 52 47 46 59 56 53 43 45 43 55 63 63 72 82
16 18 22 24 21 26 27 27 32 44 61 71 67 63 79 90 95 86 88 80 62 59 49 63 65 67 65 70 79 81 79 66 70 57 54 51 67 52 42 54 50 55 53 49 74 79 75
21 21 25 33 38 42 40 46 53 59 57 58 60 69 83 88 92 94 82 76 67 66 31 51 55 66 60 66 69 74 70 66 54 59 51 52 57 60 57 53 55 50 40 66 61 73 38
29 33 37 44 45 49 51 57 60 60 60 66 69 84 92 85 85 85 84 58 65 43 38 34 49 66 67 64 68 73 70 56 63 41 42 51 56 66 57 47 36 47 37 50 40 36 26
36 39 44 51 51 54 55 61 61 65 71 81 83 85 85 91 87 82 86 79 46 50 44 57 51 55 47 56 56 71 64 54 44 53 39 37 44 53 60 52 46 54 54 45 62 57 63
37 39 44 51 58 63 65 65 62 66 71 76 85 78 90 88 85 85 91 68 54 50 54 53 54 45 44 48 53 61 52 46 50 57 51 34 45 47 57 53 52 48 43 61 59 62 56
40 38 50 50 61 63 65 65 64 64 72 77 83 88 89 93 87 97 95 77 62 59 58 56 55 54 50 47 47 49 44 38 45 57 54 40 37 51 53 60 49 57 54 60 55 60 71
51 48 59 55 68 69 64 60 63 64 74 84 80 83 92 99 96 79 94 96 89 66 62 56 53 52 52 50 52 48 46 44 56 55 56 52 47 50 41 46 44 45 43 40 55 67 75
48 70 47 46 44 46 58 63 55 59 67 78 88 90 88 95 86 86 92 85 95 93 75 71 65 69 57 53 63 53 46 54 61 56 57 50 55 61 52 47 49 51 53 48 49 54 58
48 44 40 38 36 31 30 37 59 55 58 67 92 84 98 98 98 97 89 86 83 90 88 96 90 84 97 76 59 72 62 63 66 69 72 59 55 48 41 44 44 52 55 55 52 59 49
54 45 44 42 42 37 27 26 34 47 53 65 92 96 94 92 99 88 97 91 84 93 88 95 94 86 87 98 91 92 73 71 71 74 72 59 64 62 54 55 59 56 52 49 54 51 57
50 47 42 40 35 29 20 16 17 32 51 66 94 92 94 99 92 81 72 81 86 86 99 81 97 98 97 98 96 97 88 78 75 64 74 74 84 78 84 61 60 64 57 53 53 51 50
55 48 44 42 31 25 24 20 15 20 44 72 98 94 85 87 85 88 76 86 92 89 98 99 99 95 82 80 86 93 99 90 72 67 65 61 78 84 68 65 64 66 51 50 46 42 48
63 52 48 42 34 42 44 40 29 17 22 50 82 84 92 79 76 65 81 81 77 93 94 91 92 80 99 73 60 51 58 72 70 64 63 58 67 74 85 63 78 35 34 40 45 40 39
65 61 56 48 48 55 58 57 56 45 31 23 39 69 79 80 82 74 75 78 75 71 69 65 65 73 56 56 51 47 43 51 48 49 53 56 57 74 76 63 45 41 27 36 42 36 32
88 79 72 64 60 68 71 62 60 66 65 57 48 41 48 69 63 86 75 79 66 62 57 59 59 46 61 54 53 68 56 40 40 51 79 63 58 65 64 79 61 33 41 38 39 47 40
91 91 88 88 74 60 72 62 64 66 63 67 59 59 54 68 51 59 59 56 80 74 61 61 62 50 66 58 58 56 54 40 43 38 76 83 82 77 65 67 44 32 32 39 47 44 44
86 88 87 83 57 64 68 57 57 59 62 62 61 58 65 65 57 59 64 72 82 78 60 56 59 67 64 69 65 50 56 45 56 35 49 54 69 71 67 76 79 33 45 46 43 37 36
71 73 75 82 74 65 66 60 59 62 71 80 73 69 73 85 76 64 68 62 58 60 68 74 58 58 51 63 69 68 64 60 71 59 49 49 36 35 47 39 40 54 45 41 42 41 38

GFSGBSN_850_rhum_201.txt.gz
RH
84 62 63 63 65 71 66 59 53 47 45 47 66 80 58 42 46 50 47 52 38 31 29 9 11 13 16 40 36 26 23 20 18 17 17 27 27 22 19 22 26 21 25 32 36 40 37
90 84 74 61 59 62 57 49 37 33 34 25 16 15 16 26 29 43 54 52 51 47 34 23 13 16 18 33 34 30 28 24 22 23 20 23 41 34 29 29 29 35 34 33 37 32 29
80 87 76 67 57 46 36 29 22 16 8 5 6 7 5 8 21 22 29 36 34 38 44 34 15 21 28 35 31 33 29 25 25 29 33 24 24 39 34 36 47 41 27 28 33 28 26
68 60 61 47 36 29 20 11 6 5 5 6 5 7 8 8 7 9 12 19 26 28 39 37 22 27 37 31 31 34 31 28 26 34 34 32 29 42 46 45 29 26 25 21 27 28 29
46 43 34 28 24 16 7 6 5 4 5 6 4 4 6 7 7 11 15 18 22 26 37 32 39 49 33 37 48 42 34 37 28 34 38 39 34 43 43 30 38 21 28 16 26 30 29
30 20 16 13 9 7 6 5 4 4 4 6 5 5 5 4 7 20 24 23 25 29 32 29 47 56 39 48 42 40 35 33 52 58 54 50 43 32 27 29 55 28 16 19 16 30 27
13 11 10 8 6 6 6 6 6 8 10 11 11 12 12 7 10 56 42 40 46 50 48 41 50 51 52 67 52 53 39 36 54 47 30 40 38 45 22 20 19 18 16 16 17 31 34
9 8 6 6 6 6 8 8 8 8 10 10 11 11 11 12 21 60 65 73 73 65 72 56 50 53 47 48 53 58 42 50 41 32 34 32 31 21 30 29 26 24 24 24 23 32 34
10 6 6 4 6 8 6 7 8 8 9 11 12 12 12 12 40 68 76 78 74 70 73 53 56 66 68 57 47 51 52 54 37 30 34 28 32 35 33 36 30 27 24 20 29 33 32
16 6 6 5 9 5 6 8 8 8 9 14 15 17 15 22 73 81 92 76 75 71 73 92 47 65 67 66 50 78 76 64 48 40 32 27 38 40 37 38 31 43 29 34 41 43 42
15 7 6 9 8 7 8 10 13 16 18 25 23 36 38 30 70 92 78 76 72 78 62 59 53 65 70 59 63 74 70 63 44 38 41 44 50 49 44 35 30 38 41 46 48 60 64
19 8 7 10 7 12 17 22 18 22 28 37 34 43 66 94 88 84 77 72 70 66 66 67 52 54 56 55 63 73 70 67 62 49 43 43 55 40 34 41 37 44 41 43 66 71 79
18 11 10 13 21 22 27 31 30 34 40 42 45 50 83 90 96 85 76 82 65 64 26 39 48 50 50 47 50 60 60 58 51 63 48 45 46 46 45 47 48 48 35 70 78 85 43
18 13 18 26 33 34 34 35 40 46 48 51 63 74 91 90 75 78 77 59 64 28 28 30 40 40 53 49 52 56 56 50 43 45 37 58 63 52 45 42 35 40 33 61 47 38 29
30 21 21 37 39 37 37 42 48 51 60 73 78 84 98 85 77 74 83 77 47 29 38 45 38 39 39 44 51 56 50 42 36 42 40 36 43 52 51 44 40 44 46 38 51 35 44
42 33 36 42 42 45 49 52 52 58 63 71 95 97 98 83 79 83 71 63 42 44 44 44 44 37 36 36 45 41 38 38 43 45 39 29 41 46 55 48 46 44 33 49 47 65 49
51 42 46 38 40 54 58 57 57 58 65 70 93 84 85 84 81 94 80 60 53 51 51 48 46 45 41 40 40 37 37 37 42 49 45 35 32 47 50 51 39 49 42 42 46 50 68
57 69 58 39 42 57 60 56 57 60 66 73 95 70 82 87 85 66 80 72 76 60 58 55 49 46 47 43 44 42 39 40 49 49 48 44 43 41 40 40 38 35 34 34 48 58 56
89 80 84 44 48 59 62 59 54 54 62 75 83 88 83 93 86 75 70 69 76 70 65 70 62 60 49 52 53 44 42 48 54 51 53 46 43 51 43 43 43 46 37 38 32 38 55
95 97 80 44 36 31 29 33 53 52 59 76 89 84 88 96 98 81 74 71 68 80 80 83 87 83 78 79 60 56 54 59 60 59 75 57 46 42 40 44 42 47 43 44 43 56 46
95 91 49 39 41 36 31 28 30 53 51 67 93 84 89 93 99 88 77 70 71 70 74 82 77 75 68 76 65 70 61 58 60 65 59 55 61 52 47 45 45 50 45 42 49 50 55
96 90 57 45 41 32 23 18 19 34 53 63 82 82 87 85 75 67 68 71 63 79 92 68 83 72 82 98 96 99 97 66 65 66 72 64 68 64 78 57 52 58 49 46 46 43 42
95 96 69 40 29 22 20 16 14 26 50 79 91 85 87 73 72 74 70 62 74 78 88 99 92 90 70 95 83 74 78 78 72 66 63 64 72 80 72 49 56 61 46 46 43 39 39
97 92 64 36 29 33 34 31 21 15 31 47 66 95 81 68 71 63 68 75 70 75 82 73 76 69 91 70 57 50 49 50 58 62 63 87 68 84 75 63 74 35 29 32 36 32 30
90 94 50 36 45 48 50 46 44 31 18 20 50 69 81 70 59 62 66 67 66 64 65 61 58 64 59 50 52 56 44 45 43 46 52 56 72 91 86 66 43 37 30 32 34 33 30
97 94 55 46 56 64 64 56 53 56 52 41 32 27 52 52 52 62 58 57 52 43 45 51 59 52 60 44 49 78 59 43 40 50 65 47 49 72 70 75 59 35 39 34 34 45 32
85 79 68 64 65 65 63 62 61 60 59 58 51 49 57 68 48 50 38 40 53 52 48 45 49 42 56 44 55 54 54 38 47 39 67 74 65 74 66 66 43 25 24 30 52 52 40
90 90 88 84 80 63 66 61 55 54 55 55 53 50 65 67 56 57 63 53 61 54 47 47 45 57 46 54 45 40 40 35 43 35 31 45 55 57 60 64 72 27 39 37 40 37 36
92 89 87 84 62 72 64 60 57 54 57 68 79 62 57 89 80 56 63 63 63 56 55 55 44 42 42 55 47 48 52 46 46 51 28 40 33 34 34 36 39 46 40 37 36 32 30